Tracking 19720 objects as of 27-Jun-2019
HD Live streaming from Space Station
objects crossing your sky now

EKRAN 6

Track EKRAN 6 now!
EKRAN 6 is classified as:


NORAD ID: 12120
Int'l Code: 1980-104A
Perigee: 35,773.1 km
Apogee: 35,842.2 km
Inclination: 12.0 °
Period: 1,436.8 minutes
Semi major axis: 42178 km
RCS: 6.3095 m2 (large)
Launch date: December 26, 1980
Source: Commonwealth of Independent States (former USSR) (CIS)
Launch site: TYURATAM MISSILE AND SPACE COMPLEX (TTMTR)
aabbcc
Your satellite tracking list
Your tracking list is empty




NASA's NSSDC Master Catalog

Two Line Element Set (TLE):
1 12120U 80104A   19177.43764910 -.00000027  00000-0  00000+0 0  9997
2 12120  11.9546 317.9416 0008186  15.2649 167.4038  1.00222243101855
Source of the keplerian elements: AFSPC